Powrót do katalogu

STARLINK-4102

AktywnyŁącznośćVLEO
NORAD 53143·PAYLOAD·🇺🇸 United States

Wystrzelony Jul 17, 2022 z Cape Canaveral Space Force Station

Loading…

Następne Przeloty (najbliższe 24 godziny)

TLE

ŚwieżeSource: CelesTrak SupGP

Epoka: Sep 14, 2026, 14:00 UTC

1 53143C 22083M   26257.58381944  .00251550  00000+0  63519-2 0  2575
2 53143  53.1610  37.6714 0000966  75.0392 146.4518 15.39128839    18

Śledź STARLINK-4102 w czasie rzeczywistym z AllMySat

Download on the App Store